Weather in Atkul

Russia / Novosibirsk Oblast     54°58′19″N   79°39′17″E
temp.,
°C
wind,
m/s
gust,
m/s
humid.,
%
clouds,
%
prec.,
mm/h
press.,
hPa
HPBL,
m
6 may, thu
thu601:00+12s35625 0.0 101177
04:00+10s346752 0.0 101050
07:00+10sse376717 0.0 1008118
10:00+17s584760 0.0 1006433
13:00+21s6736100 0.0 1004812
16:00+25ssw6828100 0.0 10021363
19:00+24ssw483734 0.0 1001397
22:00+19sw4752100 0.0 1001100
7 may, fri
fri701:00+15nw61361100 0.0 1005593
04:00+12nw4967100 0.0 1008288
07:00+11wnw3666100 0.0 1010186
10:00+14w58485 0.0 10121501
13:00+15w911334 0.0 10131950
16:00+16wnw911313 0.0 10142023
19:00+15wnw710344 0.0 10151939
22:00+11wnw49430 0.0 1018222
8 may, sat
sat801:00+9w38510 0.0 1020144
04:00+7w36540 0.0 102195
07:00+8wsw49585 0.0 1021178
10:00+15w610425 0.0 1020593
13:00+19w79385 0.0 10191640
16:00+21w8113514 0.0 10182422
19:00+20w69375 0.0 10181376
22:00+15w41049100 0.0 1018185
9 may, sun
sun901:00+14nne226079 0.0 101922
04:00+12nne22695 0.0 101910
07:00+11ne347790 0.0 102094
10:00+14ene4462100 0.0 1020474
13:00+17ene444478 0.0 10201053
16:00+19ne4337100 0.0 10191408
19:00+18ne5437100 0.0 10181274
22:00+13ene4948100 0.0 1019249
10 may, mon
mon1001:00+11ene41050100 0.0 1019245
04:00+8ene495646 0.0 1018197
07:00+8ene41158100 0.0 1018274
10:00+13ene684278 0.0 1017887
13:00+16ene6736100 0.0 10161586
16:00+17ne5633100 0.0 10141977
19:00+16ne5735100 0.0 10142195
22:00+12ne51147100 0.0 1014355